| time (UTC) | temp F | wind direction | speed MPH | gust MPH | rain 1hr in | rain 24hr in | rain mn in | humidity % | barometer mb |
| 20260507093503 | 35 | 0 | 0.0 | 0.0 | 0.00 | 0.15 | 0.00 | 92 | 1011.7 |
| 20260507093003 | 34 | 0 | 0.0 | 0.0 | 0.00 | 0.15 | 0.00 | 91 | 1011.7 |
| 20260507092503 | 34 | 0 | 0.0 | 0.0 | 0.00 | 0.16 | 0.00 | 91 | 1011.8 |
| 20260507092003 | 34 | 0 | 0.0 | 0.0 | 0.00 | 0.17 | 0.00 | 91 | 1011.7 |
| 20260507091503 | 35 | 0 | 0.0 | 0.0 | 0.00 | 0.17 | 0.00 | 91 | 1011.7 |
| 20260507091003 | 35 | 0 | 0.0 | 0.0 | 0.00 | 0.18 | 0.00 | 91 | 1011.6 |
| 20260507090503 | 35 | 0 | 0.0 | 0.0 | 0.00 | 0.19 | 0.00 | 91 | 1011.7 |
| 20260507090003 | 35 | 0 | 0.0 | 0.0 | 0.00 | 0.20 | 0.00 | 91 | 1011.7 |
| 20260507085503 | 35 | 0 | 0.0 | 0.0 | 0.00 | 0.21 | 0.00 | 91 | 1011.7 |
| 20260507085003 | 35 | 0 | 0.0 | 0.0 | 0.00 | 0.22 | 0.00 | 90 | 1011.8 |
| 20260507084503 | 35 | 0 | 0.0 | 0.0 | 0.00 | 0.22 | 0.00 | 90 | 1011.7 |
| 20260507084003 | 35 | 0 | 0.0 | 0.0 | 0.00 | 0.23 | 0.00 | 90 | 1011.8 |
| 20260507083503 | 36 | 0 | 0.0 | 0.0 | 0.00 | 0.24 | 0.00 | 90 | 1011.9 |
| 20260507083003 | 36 | 0 | 0.0 | 0.0 | 0.00 | 0.25 | 0.00 | 90 | 1011.8 |
| 20260507082503 | 36 | 0 | 0.0 | 0.0 | 0.00 | 0.26 | 0.00 | 90 | 1011.7 |
| 20260507082003 | 36 | 0 | 0.0 | 0.0 | 0.00 | 0.26 | 0.00 | 90 | 1011.7 |
| 20260507081503 | 36 | 0 | 0.0 | 0.0 | 0.00 | 0.27 | 0.00 | 90 | 1011.7 |
| 20260507081003 | 36 | 0 | 0.0 | 0.0 | 0.00 | 0.27 | 0.00 | 90 | 1011.7 |
| 20260507080503 | 37 | 0 | 0.0 | 0.0 | 0.00 | 0.27 | 0.00 | 90 | 1011.7 |
| 20260507080003 | 37 | 0 | 0.0 | 0.0 | 0.00 | 0.28 | 0.00 | 90 | 1011.8 |
| 20260507075503 | 37 | 0 | 0.0 | 0.0 | 0.00 | 0.28 | 0.00 | 90 | 1011.8 |
| 20260507075003 | 37 | 0 | 0.0 | 0.0 | 0.00 | 0.28 | 0.00 | 90 | 1011.8 |
| 20260507074503 | 37 | 0 | 0.0 | 0.0 | 0.00 | 0.29 | 0.00 | 90 | 1011.7 |
| 20260507074003 | 37 | 0 | 0.0 | 0.0 | 0.00 | 0.29 | 0.00 | 90 | 1011.7 |
| 20260507073524 | 37 | 0 | 0.0 | 0.0 | 0.00 | 0.29 | 0.00 | 90 | 1011.7 |
| 20260507073003 | 38 | 0 | 0.0 | 0.0 | 0.00 | 0.30 | 0.00 | 90 | 1011.8 |
| 20260507072503 | 38 | 0 | 0.0 | 0.0 | 0.00 | 0.30 | 0.00 | 89 | 1011.7 |
| 20260507072003 | 38 | 0 | 0.0 | 0.0 | 0.00 | 0.30 | 0.00 | 90 | 1011.6 |
| 20260507071503 | 38 | 0 | 0.0 | 0.0 | 0.00 | 0.31 | 0.00 | 90 | 1011.7 |
| 20260507071003 | 39 | 0 | 0.0 | 0.0 | 0.00 | 0.31 | 0.00 | 90 | 1011.6 |
| 20260507070503 | 39 | 0 | 0.0 | 0.0 | 0.00 | 0.32 | 0.00 | 90 | 1011.6 |
| 20260507070004 | 39 | 0 | 0.0 | 0.0 | 0.00 | 0.33 | 0.00 | 89 | 1011.7 |
| 20260507065503 | 39 | 0 | 0.0 | 0.0 | 0.00 | 0.33 | 0.00 | 90 | 1011.8 |
| 20260507065003 | 40 | 0 | 0.0 | 0.0 | 0.00 | 0.34 | 0.00 | 89 | 1011.9 |
| 20260507064503 | 40 | 0 | 0.0 | 0.0 | 0.00 | 0.35 | 0.00 | 90 | 1012.0 |
| 20260507064003 | 40 | 0 | 0.0 | 0.0 | 0.00 | 0.35 | 0.00 | 89 | 1012.2 |
| 20260507063524 | 40 | 0 | 0.0 | 0.0 | 0.00 | 0.36 | 0.00 | 89 | 1012.2 |
| 20260507063003 | 41 | 0 | 0.0 | 0.0 | 0.00 | 0.38 | 0.00 | 89 | 1012.2 |
| 20260507062503 | 41 | 0 | 0.0 | 0.0 | 0.00 | 0.38 | 0.00 | 89 | 1012.2 |
| 20260507062003 | 41 | 0 | 0.0 | 0.0 | 0.00 | 0.39 | 0.00 | 89 | 1012.2 |
| 20260507061503 | 41 | 0 | 0.0 | 0.0 | 0.00 | 0.40 | 0.00 | 89 | 1012.0 |
| 20260507061003 | 41 | 0 | 0.0 | 0.0 | 0.00 | 0.40 | 0.00 | 89 | 1012.0 |
| 20260507060503 | 41 | 0 | 0.0 | 0.0 | 0.00 | 0.41 | 0.00 | 89 | 1012.0 |
| 20260507060003 | 42 | 0 | 0.0 | 0.0 | 0.00 | 0.41 | 0.00 | 89 | 1012.1 |
| 20260507055503 | 42 | 0 | 0.0 | 0.0 | 0.00 | 0.42 | 0.00 | 89 | 1012.2 |
| 20260507055003 | 42 | 0 | 0.0 | 0.0 | 0.00 | 0.42 | 0.00 | 89 | 1012.3 |
| 20260507054503 | 42 | 0 | 0.0 | 0.0 | 0.00 | 0.43 | 0.00 | 89 | 1012.3 |
| 20260507054003 | 42 | 0 | 0.0 | 0.0 | 0.00 | 0.43 | 0.00 | 88 | 1012.2 |
| 20260507053503 | 42 | 0 | 0.0 | 0.0 | 0.00 | 0.44 | 0.00 | 88 | 1012.4 |
| 20260507053024 | 42 | 0 | 0.0 | 0.0 | 0.00 | 0.45 | 0.00 | 88 | 1012.4 |
| 20260507052503 | 42 | 0 | 0.0 | 0.0 | 0.00 | 0.46 | 0.00 | 88 | 1012.5 |
| 20260507052003 | 42 | 0 | 0.0 | 0.0 | 0.00 | 0.47 | 0.00 | 88 | 1012.5 |
| 20260507051503 | 42 | 0 | 0.0 | 0.0 | 0.00 | 0.48 | 0.00 | 88 | 1012.6 |
| 20260507051003 | 42 | 0 | 0.0 | 0.0 | 0.00 | 0.49 | 0.00 | 88 | 1012.6 |
| 20260507050503 | 43 | 0 | 0.0 | 0.0 | 0.00 | 0.50 | 0.00 | 87 | 1012.6 |
| 20260507050003 | 43 | 0 | 0.0 | 0.0 | 0.00 | 0.51 | 0.00 | 88 | 1012.7 |
| 20260507045503 | 43 | 0 | 0.0 | 0.0 | 0.00 | 0.52 | 0.00 | 87 | 1012.7 |
| 20260507045003 | 43 | 0 | 0.0 | 0.0 | 0.00 | 0.54 | 0.00 | 87 | 1012.6 |
| 20260507044503 | 43 | 0 | 0.0 | 0.0 | 0.00 | 0.55 | 0.00 | 87 | 1012.7 |
| 20260507044003 | 43 | 0 | 0.0 | 0.0 | 0.00 | 0.56 | 0.00 | 87 | 1012.8 |
| 20260507043503 | 43 | 0 | 0.0 | 0.0 | 0.00 | 0.57 | 0.00 | 87 | 1012.7 |
| 20260507043003 | 43 | 0 | 0.0 | 0.0 | 0.00 | 0.58 | 0.00 | 87 | 1012.7 |
| 20260507042503 | 43 | 273 | 0.0 | 1.0 | 0.00 | 0.59 | 0.00 | 87 | 1012.6 |
| 20260507042003 | 43 | 273 | 0.0 | 1.0 | 0.00 | 0.60 | 0.00 | 87 | 1012.7 |
| 20260507041503 | 43 | 273 | 0.0 | 1.0 | 0.00 | 0.61 | 0.00 | 87 | 1012.6 |
| 20260507041003 | 43 | 273 | 0.0 | 2.0 | 0.00 | 0.62 | 0.00 | 87 | 1012.6 |
| 20260507040503 | 43 | 273 | 0.0 | 2.0 | 0.00 | 0.63 | 0.00 | 87 | 1012.6 |
| 20260507040003 | 43 | 273 | 0.0 | 2.0 | 0.00 | 0.63 | 0.00 | 87 | 1012.6 |
| 20260507035503 | 43 | 273 | 0.0 | 1.0 | 0.00 | 0.63 | 0.63 | 87 | 1012.5 |
| 20260507035003 | 44 | 273 | 0.0 | 2.0 | 0.00 | 0.64 | 0.63 | 87 | 1012.5 |
| 20260507034503 | 43 | 273 | 0.0 | 2.0 | 0.00 | 0.64 | 0.63 | 87 | 1012.4 |
| 20260507034003 | 44 | 274 | 1.0 | 3.0 | 0.00 | 0.65 | 0.63 | 87 | 1012.5 |
| 20260507033503 | 44 | 275 | 1.0 | 3.0 | 0.00 | 0.65 | 0.63 | 87 | 1012.5 |
| 20260507033024 | 44 | 275 | 1.0 | 3.0 | 0.00 | 0.66 | 0.63 | 87 | 1012.6 |
| 20260507032503 | 44 | 276 | 1.0 | 3.0 | 0.00 | 0.66 | 0.63 | 87 | 1012.5 |
| 20260507032003 | 44 | 279 | 1.0 | 3.0 | 0.00 | 0.66 | 0.63 | 87 | 1012.5 |
| 20260507031503 | 44 | 279 | 1.0 | 3.0 | 0.00 | 0.67 | 0.63 | 87 | 1012.5 |
| 20260507031003 | 44 | 279 | 0.0 | 2.0 | 0.00 | 0.68 | 0.63 | 87 | 1012.5 |
| 20260507030503 | 43 | 291 | 1.0 | 4.0 | 0.00 | 0.68 | 0.63 | 87 | 1012.6 |
| 20260507030003 | 43 | 297 | 1.0 | 4.0 | 0.00 | 0.69 | 0.63 | 87 | 1012.7 |
| 20260507025524 | 43 | 308 | 0.0 | 2.0 | 0.00 | 0.70 | 0.63 | 87 | 1012.7 |
| 20260507025003 | 43 | 308 | 0.0 | 2.0 | 0.00 | 0.71 | 0.63 | 87 | 1012.6 |
| 20260507024503 | 43 | 308 | 0.0 | 2.0 | 0.00 | 0.72 | 0.63 | 87 | 1012.5 |
| 20260507024003 | 43 | 308 | 0.0 | 1.0 | 0.00 | 0.73 | 0.63 | 87 | 1012.5 |
| 20260507023524 | 43 | 0 | 0.0 | 0.0 | 0.00 | 0.73 | 0.63 | 87 | 1012.5 |
| 20260507023003 | 43 | 0 | 0.0 | 0.0 | 0.00 | 0.74 | 0.63 | 87 | 1012.5 |
| 20260507022503 | 43 | 0 | 0.0 | 0.0 | 0.00 | 0.74 | 0.63 | 87 | 1012.6 |
| 20260507022024 | 43 | 308 | 0.0 | 1.0 | 0.00 | 0.74 | 0.63 | 87 | 1012.6 |
| 20260507021503 | 43 | 308 | 0.0 | 1.0 | 0.00 | 0.74 | 0.63 | 87 | 1012.6 |
| 20260507021024 | 43 | 0 | 0.0 | 0.0 | 0.00 | 0.75 | 0.63 | 87 | 1012.6 |
| 20260507020503 | 43 | 308 | 0.0 | 1.0 | 0.00 | 0.75 | 0.63 | 87 | 1012.7 |
| 20260507020003 | 43 | 308 | 0.0 | 1.0 | 0.00 | 0.75 | 0.63 | 87 | 1012.7 |
| 20260507015503 | 43 | 308 | 0.0 | 1.0 | 0.00 | 0.75 | 0.63 | 87 | 1012.7 |
| 20260507015024 | 43 | 0 | 0.0 | 0.0 | 0.00 | 0.75 | 0.63 | 87 | 1012.8 |
| 20260507014524 | 43 | 0 | 0.0 | 0.0 | 0.00 | 0.75 | 0.63 | 87 | 1012.8 |
| 20260507014024 | 43 | 308 | 0.0 | 1.0 | 0.00 | 0.75 | 0.63 | 87 | 1012.8 |
| 20260507013524 | 43 | 308 | 0.0 | 1.0 | 0.00 | 0.76 | 0.63 | 87 | 1012.8 |
| 20260507013003 | 43 | 0 | 0.0 | 0.0 | 0.00 | 0.76 | 0.63 | 87 | 1012.9 |
| 20260507012503 | 43 | 0 | 0.0 | 0.0 | 0.00 | 0.76 | 0.63 | 87 | 1012.8 |
| 20260507012003 | 44 | 308 | 0.0 | 1.0 | 0.00 | 0.77 | 0.63 | 87 | 1012.6 |
| 20260507011524 | 44 | 308 | 0.0 | 1.0 | 0.00 | 0.77 | 0.63 | 87 | 1012.5 |
| 20260507011024 | 44 | 308 | 0.0 | 1.0 | 0.00 | 0.77 | 0.63 | 87 | 1012.5 |
| 20260507010503 | 44 | 308 | 0.0 | 1.0 | 0.00 | 0.78 | 0.63 | 86 | 1012.3 |
| 20260507010003 | 44 | 0 | 0.0 | 0.0 | 0.00 | 0.78 | 0.63 | 86 | 1012.3 |
| 20260507005524 | 44 | 0 | 0.0 | 0.0 | 0.00 | 0.79 | 0.63 | 86 | 1012.2 |
| 20260507005024 | 43 | 0 | 0.0 | 0.0 | 0.00 | 0.79 | 0.63 | 86 | 1012.2 |
| 20260507004503 | 44 | 0 | 0.0 | 0.0 | 0.00 | 0.80 | 0.63 | 86 | 1012.2 |
| 20260507004003 | 44 | 308 | 0.0 | 2.0 | 0.00 | 0.81 | 0.63 | 86 | 1012.2 |
| 20260507003503 | 44 | 308 | 0.0 | 2.0 | 0.00 | 0.82 | 0.63 | 86 | 1012.2 |
| 20260507003003 | 44 | 308 | 0.0 | 2.0 | 0.00 | 0.83 | 0.63 | 86 | 1012.1 |
| 20260507002503 | 44 | 308 | 0.0 | 2.0 | 0.00 | 0.84 | 0.63 | 86 | 1011.9 |
| 20260507002003 | 44 | 308 | 1.0 | 3.0 | 0.00 | 0.85 | 0.63 | 86 | 1011.9 |
| 20260507001503 | 44 | 308 | 1.0 | 3.0 | 0.00 | 0.85 | 0.63 | 85 | 1011.8 |
| 20260507001003 | 44 | 308 | 1.0 | 3.0 | 0.00 | 0.85 | 0.63 | 85 | 1011.8 |
| 20260507000503 | 44 | 308 | 1.0 | 3.0 | 0.00 | 0.86 | 0.63 | 85 | 1011.8 |
| 20260507000003 | 44 | 309 | 0.0 | 2.0 | 0.00 | 0.87 | 0.63 | 85 | 1011.7 |
| 20260506235503 | 44 | 309 | 0.0 | 3.0 | 0.00 | 0.87 | 0.63 | 86 | 1011.6 |
| 20260506235003 | 44 | 309 | 0.0 | 3.0 | 0.00 | 0.88 | 0.63 | 86 | 1011.6 |
| 20260506234503 | 44 | 309 | 0.0 | 1.0 | 0.00 | 0.88 | 0.63 | 86 | 1011.6 |
| 20260506234003 | 44 | 309 | 0.0 | 3.0 | 0.00 | 0.89 | 0.63 | 86 | 1011.7 |
| 20260506233503 | 44 | 309 | 1.0 | 3.0 | 0.00 | 0.90 | 0.63 | 86 | 1011.6 |
| 20260506233003 | 44 | 309 | 1.0 | 2.0 | 0.00 | 0.91 | 0.63 | 86 | 1011.6 |
| 20260506232503 | 44 | 309 | 1.0 | 3.0 | 0.00 | 0.91 | 0.63 | 86 | 1011.7 |
| 20260506232003 | 44 | 309 | 1.0 | 3.0 | 0.00 | 0.92 | 0.63 | 86 | 1011.6 |
| 20260506231503 | 44 | 309 | 1.0 | 4.0 | 0.00 | 0.92 | 0.63 | 86 | 1011.6 |
| 20260506231024 | 44 | 309 | 1.0 | 4.0 | 0.00 | 0.93 | 0.63 | 86 | 1011.6 |
| 20260506230503 | 44 | 309 | 1.0 | 4.0 | 0.00 | 0.93 | 0.63 | 86 | 1011.4 |
| 20260506230003 | 44 | 310 | 2.0 | 4.0 | 0.00 | 0.94 | 0.63 | 86 | 1011.4 |
| 20260506225524 | 44 | 311 | 2.0 | 4.0 | 0.00 | 0.95 | 0.63 | 87 | 1011.4 |
| 20260506225024 | 44 | 306 | 1.0 | 4.0 | 0.00 | 0.96 | 0.63 | 87 | 1011.4 |
| 20260506224524 | 44 | 304 | 2.0 | 4.0 | 0.00 | 0.97 | 0.63 | 87 | 1011.4 |
| 20260506224003 | 44 | 299 | 2.0 | 4.0 | 0.00 | 0.98 | 0.63 | 87 | 1011.3 |
| 20260506223503 | 44 | 298 | 2.0 | 8.0 | 0.00 | 0.99 | 0.63 | 87 | 1011.1 |
| 20260506223024 | 44 | 299 | 2.0 | 8.0 | 0.00 | 1.00 | 0.63 | 87 | 1010.9 |
| 20260506222503 | 44 | 293 | 2.0 | 7.0 | 0.00 | 1.01 | 0.63 | 87 | 1011.0 |
| 20260506222003 | 44 | 289 | 2.0 | 9.0 | 0.00 | 1.02 | 0.63 | 87 | 1010.9 |
| 20260506221503 | 44 | 290 | 3.0 | 9.0 | 0.00 | 1.04 | 0.63 | 87 | 1010.7 |
| 20260506221003 | 44 | 288 | 3.0 | 9.0 | 0.00 | 1.06 | 0.63 | 87 | 1010.6 |
| 20260506220503 | 44 | 297 | 3.0 | 8.0 | 0.00 | 1.07 | 0.63 | 87 | 1010.6 |
| 20260506220003 | 44 | 300 | 3.0 | 7.0 | 0.00 | 1.08 | 0.63 | 88 | 1010.6 |
| 20260506215524 | 44 | 295 | 3.0 | 9.0 | 0.00 | 1.09 | 0.63 | 88 | 1010.6 |
| 20260506215003 | 44 | 287 | 4.0 | 11.0 | 0.00 | 1.11 | 0.63 | 87 | 1010.6 |
| 20260506214503 | 44 | 278 | 5.0 | 11.0 | 0.00 | 1.12 | 0.63 | 87 | 1010.6 |
| 20260506214003 | 44 | 281 | 6.0 | 11.0 | 0.00 | 1.14 | 0.63 | 87 | 1010.5 |
| 20260506213503 | 44 | 279 | 7.0 | 13.0 | 0.00 | 1.15 | 0.63 | 86 | 1010.3 |
| 20260506213003 | 45 | 278 | 7.0 | 13.0 | 0.00 | 1.16 | 0.63 | 85 | 1010.3 |
| 20260506212503 | 46 | 276 | 6.0 | 13.0 | 0.00 | 1.17 | 0.63 | 84 | 1010.3 |
| 20260506212003 | 47 | 270 | 6.0 | 14.0 | 0.00 | 1.18 | 0.63 | 83 | 1010.2 |
| 20260506211503 | 48 | 252 | 6.0 | 14.0 | 0.00 | 1.20 | 0.63 | 83 | 1009.8 |
| 20260506211003 | 48 | 246 | 6.0 | 14.0 | 0.00 | 1.22 | 0.63 | 83 | 1009.7 |
| 20260506210503 | 48 | 254 | 7.0 | 14.0 | 0.00 | 1.23 | 0.63 | 82 | 1009.7 |
| 20260506210003 | 49 | 252 | 6.0 | 13.0 | 0.00 | 1.24 | 0.63 | 82 | 1009.7 |
| 20260506205503 | 49 | 250 | 6.0 | 16.0 | 0.00 | 1.25 | 0.63 | 82 | 1009.6 |
| 20260506205003 | 49 | 248 | 7.0 | 16.0 | 0.00 | 1.25 | 0.63 | 81 | 1009.5 |
| 20260506204503 | 50 | 248 | 7.0 | 16.0 | 0.00 | 1.27 | 0.63 | 79 | 1009.5 |
| 20260506204003 | 50 | 243 | 7.0 | 16.0 | 0.00 | 1.27 | 0.63 | 78 | 1009.6 |
| 20260506203503 | 51 | 237 | 6.0 | 16.0 | 0.00 | 1.28 | 0.63 | 77 | 1009.5 |
| 20260506203003 | 51 | 251 | 6.0 | 16.0 | 0.00 | 1.28 | 0.63 | 76 | 1009.5 |
| 20260506202503 | 51 | 252 | 7.0 | 16.0 | 0.00 | 1.28 | 0.63 | 75 | 1009.6 |
| 20260506202003 | 52 | 235 | 7.0 | 16.0 | 0.00 | 1.28 | 0.63 | 73 | 1009.5 |
| 20260506201503 | 52 | 232 | 6.0 | 13.0 | 0.00 | 1.28 | 0.63 | 73 | 1009.3 |
| 20260506201003 | 52 | 244 | 6.0 | 13.0 | 0.00 | 1.28 | 0.63 | 72 | 1009.3 |
| 20260506200503 | 53 | 246 | 5.0 | 13.0 | 0.00 | 1.28 | 0.63 | 71 | 1009.3 |
| 20260506200024 | 53 | 252 | 5.0 | 12.0 | 0.00 | 1.28 | 0.63 | 72 | 1009.2 |
| 20260506195503 | 53 | 260 | 6.0 | 13.0 | 0.00 | 1.28 | 0.63 | 71 | 1009.1 |
| 20260506195003 | 53 | 259 | 5.0 | 13.0 | 0.00 | 1.28 | 0.63 | 71 | 1009.2 |
| 20260506194503 | 52 | 261 | 6.0 | 13.0 | 0.00 | 1.28 | 0.63 | 73 | 1009.2 |
| 20260506194003 | 52 | 252 | 6.0 | 13.0 | 0.00 | 1.28 | 0.63 | 73 | 1009.2 |
| 20260506193503 | 52 | 243 | 4.0 | 12.0 | 0.00 | 1.28 | 0.63 | 74 | 1009.3 |
| 20260506193003 | 51 | 249 | 3.0 | 8.0 | 0.00 | 1.28 | 0.63 | 78 | 1009.2 |
| 20260506192503 | 50 | 253 | 5.0 | 10.0 | 0.00 | 1.28 | 0.63 | 77 | 1009.3 |
| 20260506192003 | 50 | 227 | 4.0 | 12.0 | 0.00 | 1.28 | 0.63 | 78 | 1009.2 |
| 20260506191524 | 50 | 192 | 2.0 | 12.0 | 0.00 | 1.28 | 0.63 | 80 | 1009.2 |
| 20260506191003 | 50 | 164 | 0.0 | 4.0 | 0.00 | 1.28 | 0.63 | 79 | 1009.2 |
| 20260506190524 | 50 | 164 | 1.0 | 4.0 | 0.00 | 1.28 | 0.63 | 80 | 1009.1 |
| 20260506190003 | 50 | 164 | 1.0 | 4.0 | 0.00 | 1.28 | 0.63 | 81 | 1009.1 |
| 20260506185503 | 50 | 165 | 1.0 | 4.0 | 0.00 | 1.28 | 0.63 | 80 | 1009.1 |
| 20260506185024 | 50 | 165 | 1.0 | 2.0 | 0.00 | 1.28 | 0.63 | 80 | 1009.1 |
| 20260506184524 | 50 | 165 | 1.0 | 4.0 | 0.00 | 1.28 | 0.63 | 80 | 1009.0 |
| 20260506184003 | 50 | 165 | 1.0 | 4.0 | 0.00 | 1.28 | 0.63 | 80 | 1009.1 |
| 20260506183503 | 50 | 166 | 1.0 | 4.0 | 0.00 | 1.28 | 0.63 | 81 | 1009.1 |
| 20260506183003 | 50 | 167 | 1.0 | 4.0 | 0.00 | 1.28 | 0.63 | 81 | 1009.2 |
| 20260506182503 | 50 | 167 | 1.0 | 4.0 | 0.00 | 1.28 | 0.63 | 82 | 1009.3 |
| 20260506182003 | 50 | 167 | 1.0 | 4.0 | 0.00 | 1.28 | 0.63 | 83 | 1009.3 |
| 20260506181503 | 49 | 167 | 1.0 | 4.0 | 0.00 | 1.28 | 0.63 | 83 | 1009.3 |
| 20260506181003 | 49 | 167 | 2.0 | 4.0 | 0.00 | 1.28 | 0.63 | 84 | 1009.3 |
| 20260506180503 | 49 | 167 | 2.0 | 4.0 | 0.00 | 1.28 | 0.63 | 85 | 1009.3 |
| 20260506180003 | 49 | 219 | 2.0 | 5.0 | 0.00 | 1.28 | 0.63 | 86 | 1009.3 |
| 20260506175524 | 49 | 283 | 1.0 | 5.0 | 0.01 | 1.28 | 0.63 | 85 | 1009.3 |
| 20260506175003 | 48 | 295 | 1.0 | 2.0 | 0.01 | 1.28 | 0.63 | 86 | 1009.3 |
| 20260506174503 | 48 | 295 | 0.0 | 2.0 | 0.01 | 1.28 | 0.63 | 87 | 1009.3 |
| 20260506174003 | 48 | 296 | 1.0 | 2.0 | 0.01 | 1.28 | 0.63 | 88 | 1009.3 |
| 20260506173503 | 48 | 296 | 1.0 | 3.0 | 0.01 | 1.28 | 0.63 | 88 | 1009.4 |
| 20260506173003 | 48 | 297 | 1.0 | 3.0 | 0.01 | 1.28 | 0.63 | 88 | 1009.3 |
| 20260506172503 | 48 | 297 | 1.0 | 3.0 | 0.01 | 1.28 | 0.63 | 88 | 1009.3 |
| 20260506172003 | 48 | 297 | 1.0 | 2.0 | 0.01 | 1.28 | 0.63 | 89 | 1009.4 |
| 20260506171503 | 48 | 297 | 0.0 | 2.0 | 0.01 | 1.28 | 0.63 | 89 | 1009.4 |
| 20260506171003 | 47 | 297 | 0.0 | 2.0 | 0.01 | 1.28 | 0.63 | 89 | 1009.4 |
| 20260506170503 | 47 | 297 | 0.0 | 2.0 | 0.01 | 1.28 | 0.63 | 88 | 1009.5 |
| 20260506170004 | 47 | 297 | 1.0 | 3.0 | 0.01 | 1.28 | 0.63 | 87 | 1009.4 |
| 20260506165524 | 48 | 297 | 1.0 | 3.0 | 0.00 | 1.27 | 0.62 | 87 | 1009.4 |
| 20260506165003 | 48 | 297 | 2.0 | 4.0 | 0.00 | 1.27 | 0.62 | 86 | 1009.2 |
| 20260506164503 | 48 | 298 | 1.0 | 4.0 | 0.00 | 1.27 | 0.62 | 85 | 1009.2 |
| 20260506164003 | 48 | 298 | 0.0 | 3.0 | 0.00 | 1.27 | 0.62 | 85 | 1009.2 |
| 20260506163503 | 49 | 5 | 0.0 | 1.0 | 0.00 | 1.27 | 0.62 | 85 | 1009.1 |
| 20260506163003 | 48 | 5 | 0.0 | 3.0 | 0.00 | 1.27 | 0.62 | 86 | 1009.0 |
| 20260506162503 | 48 | 7 | 1.0 | 3.0 | 0.00 | 1.27 | 0.62 | 86 | 1009.0 |
| 20260506162003 | 48 | 8 | 2.0 | 3.0 | 0.00 | 1.27 | 0.62 | 86 | 1008.9 |
| 20260506161503 | 48 | 7 | 2.0 | 3.0 | 0.00 | 1.27 | 0.62 | 86 | 1008.9 |
| 20260506161003 | 48 | 6 | 1.0 | 3.0 | 0.00 | 1.27 | 0.62 | 86 | 1009.1 |
| 20260506160503 | 48 | 22 | 1.0 | 3.0 | 0.00 | 1.27 | 0.62 | 87 | 1009.0 |
| 20260506160003 | 48 | 37 | 1.0 | 3.0 | 0.00 | 1.27 | 0.62 | 87 | 1009.0 |
| 20260506155503 | 48 | 37 | 1.0 | 3.0 | 0.00 | 1.27 | 0.62 | 88 | 1009.0 |
| 20260506155003 | 48 | 37 | 1.0 | 3.0 | 0.00 | 1.27 | 0.62 | 88 | 1009.1 |
| 20260506154503 | 48 | 37 | 1.0 | 3.0 | 0.00 | 1.27 | 0.62 | 88 | 1009.1 |
| 20260506154003 | 48 | 37 | 1.0 | 3.0 | 0.00 | 1.27 | 0.62 | 89 | 1008.9 |
| 20260506153503 | 48 | 37 | 1.0 | 3.0 | 0.00 | 1.27 | 0.62 | 90 | 1008.9 |
| 20260506153003 | 47 | 37 | 1.0 | 3.0 | 0.00 | 1.27 | 0.62 | 90 | 1008.9 |
| 20260506152503 | 47 | 28 | 1.0 | 5.0 | 0.00 | 1.27 | 0.62 | 90 | 1008.8 |
| 20260506152003 | 47 | 19 | 2.0 | 5.0 | 0.00 | 1.27 | 0.62 | 90 | 1008.8 |
| 20260506151503 | 47 | 9 | 2.0 | 4.0 | 0.00 | 1.27 | 0.62 | 91 | 1008.8 |
| 20260506151003 | 47 | 5 | 1.0 | 3.0 | 0.00 | 1.27 | 0.62 | 91 | 1008.8 |
| 20260506150503 | 46 | 5 | 1.0 | 3.0 | 0.00 | 1.27 | 0.62 | 91 | 1008.7 |
| 20260506150003 | 46 | 5 | 1.0 | 3.0 | 0.00 | 1.27 | 0.62 | 91 | 1008.9 |
| 20260506145524 | 46 | 5 | 2.0 | 4.0 | 0.00 | 1.27 | 0.62 | 91 | 1008.9 |
| 20260506145024 | 46 | 5 | 2.0 | 4.0 | 0.00 | 1.27 | 0.62 | 91 | 1008.7 |
| 20260506144503 | 46 | 5 | 2.0 | 4.0 | 0.00 | 1.27 | 0.62 | 91 | 1008.6 |
| 20260506144003 | 46 | 5 | 2.0 | 4.0 | 0.00 | 1.27 | 0.62 | 92 | 1008.5 |
| 20260506143503 | 46 | 5 | 2.0 | 4.0 | 0.00 | 1.27 | 0.62 | 92 | 1008.5 |
| 20260506143003 | 46 | 5 | 1.0 | 4.0 | 0.00 | 1.27 | 0.62 | 92 | 1008.6 |
| 20260506142503 | 46 | 5 | 1.0 | 4.0 | 0.00 | 1.27 | 0.62 | 92 | 1008.6 |
| 20260506142003 | 46 | 5 | 1.0 | 3.0 | 0.00 | 1.27 | 0.62 | 92 | 1008.6 |
| 20260506141503 | 46 | 2 | 1.0 | 3.0 | 0.00 | 1.27 | 0.62 | 92 | 1008.6 |
| 20260506141003 | 45 | 1 | 1.0 | 3.0 | 0.00 | 1.27 | 0.62 | 92 | 1008.5 |
| 20260506140503 | 46 | 21 | 1.0 | 3.0 | 0.00 | 1.27 | 0.62 | 92 | 1008.4 |
| 20260506140003 | 45 | 69 | 1.0 | 3.0 | 0.01 | 1.27 | 0.62 | 92 | 1008.2 |
| 20260506135503 | 46 | 106 | 1.0 | 2.0 | 0.01 | 1.27 | 0.62 | 92 | 1008.3 |
| 20260506135003 | 46 | 107 | 1.0 | 3.0 | 0.01 | 1.27 | 0.62 | 92 | 1008.2 |
| 20260506134503 | 46 | 108 | 1.0 | 3.0 | 0.01 | 1.27 | 0.62 | 92 | 1008.1 |
| 20260506134024 | 46 | 108 | 1.0 | 4.0 | 0.01 | 1.27 | 0.62 | 92 | 1008.1 |
| 20260506133503 | 45 | 108 | 1.0 | 4.0 | 0.02 | 1.27 | 0.62 | 92 | 1008.0 |
| 20260506133003 | 45 | 108 | 1.0 | 4.0 | 0.02 | 1.27 | 0.62 | 92 | 1008.0 |
| 20260506132503 | 45 | 108 | 1.0 | 3.0 | 0.02 | 1.27 | 0.62 | 92 | 1007.9 |
| 20260506132024 | 45 | 108 | 1.0 | 3.0 | 0.03 | 1.27 | 0.62 | 92 | 1008.0 |
| 20260506131503 | 45 | 108 | 0.0 | 3.0 | 0.03 | 1.27 | 0.62 | 92 | 1008.1 |
| 20260506131003 | 45 | 108 | 1.0 | 4.0 | 0.03 | 1.27 | 0.62 | 92 | 1008.1 |
| 20260506130524 | 45 | 101 | 1.0 | 4.0 | 0.03 | 1.27 | 0.62 | 92 | 1008.0 |
| 20260506130003 | 45 | 76 | 1.0 | 4.0 | 0.02 | 1.26 | 0.61 | 92 | 1008.1 |
| 20260506125503 | 45 | 73 | 1.0 | 3.0 | 0.02 | 1.26 | 0.61 | 92 | 1007.8 |
| 20260506125003 | 45 | 82 | 1.0 | 4.0 | 0.02 | 1.26 | 0.61 | 92 | 1007.8 |
| 20260506124503 | 44 | 99 | 1.0 | 4.0 | 0.02 | 1.26 | 0.61 | 92 | 1007.7 |
| 20260506124003 | 44 | 111 | 1.0 | 3.0 | 0.03 | 1.26 | 0.61 | 92 | 1007.8 |
| 20260506123503 | 44 | 110 | 1.0 | 4.0 | 0.02 | 1.25 | 0.60 | 92 | 1007.9 |
| 20260506123003 | 44 | 107 | 2.0 | 4.0 | 0.02 | 1.25 | 0.60 | 92 | 1007.8 |
| 20260506122503 | 44 | 100 | 1.0 | 4.0 | 0.02 | 1.25 | 0.60 | 92 | 1007.9 |
| 20260506122003 | 44 | 88 | 1.0 | 6.0 | 0.02 | 1.24 | 0.59 | 92 | 1007.7 |
| 20260506121524 | 44 | 87 | 2.0 | 7.0 | 0.02 | 1.24 | 0.59 | 92 | 1007.7 |
| 20260506121003 | 44 | 81 | 2.0 | 7.0 | 0.03 | 1.24 | 0.59 | 92 | 1007.6 |
| 20260506120503 | 44 | 75 | 2.0 | 7.0 | 0.03 | 1.24 | 0.59 | 92 | 1007.6 |
| 20260506120003 | 44 | 69 | 2.0 | 7.0 | 0.03 | 1.24 | 0.59 | 92 | 1007.4 |
| 20260506115503 | 44 | 88 | 2.0 | 6.0 | 0.04 | 1.24 | 0.59 | 92 | 1007.4 |
| 20260506115024 | 44 | 102 | 2.0 | 6.0 | 0.04 | 1.24 | 0.59 | 92 | 1007.6 |
| 20260506114503 | 44 | 97 | 2.0 | 7.0 | 0.04 | 1.24 | 0.59 | 92 | 1007.6 |
| 20260506114003 | 44 | 97 | 3.0 | 7.0 | 0.04 | 1.23 | 0.58 | 92 | 1007.7 |
| 20260506113503 | 44 | 74 | 2.0 | 6.0 | 0.04 | 1.23 | 0.58 | 92 | 1007.7 |
| 20260506113003 | 45 | 43 | 3.0 | 8.0 | 0.05 | 1.23 | 0.58 | 92 | 1007.6 |
| 20260506112503 | 45 | 31 | 3.0 | 8.0 | 0.05 | 1.23 | 0.58 | 92 | 1007.6 |
| 20260506112003 | 45 | 45 | 3.0 | 10.0 | 0.04 | 1.22 | 0.57 | 92 | 1007.5 |
| 20260506111503 | 45 | 52 | 3.0 | 10.0 | 0.05 | 1.22 | 0.57 | 92 | 1007.7 |
| 20260506111003 | 45 | 32 | 3.0 | 7.0 | 0.04 | 1.21 | 0.56 | 92 | 1007.9 |
| 20260506110503 | 45 | 16 | 2.0 | 7.0 | 0.05 | 1.21 | 0.56 | 92 | 1007.9 |
| 20260506110003 | 45 | 15 | 2.0 | 7.0 | 0.05 | 1.21 | 0.56 | 93 | 1007.9 |
| 20260506105503 | 45 | 14 | 2.0 | 7.0 | 0.05 | 1.20 | 0.55 | 93 | 1007.3 |
| 20260506105003 | 45 | 28 | 2.0 | 4.0 | 0.05 | 1.20 | 0.55 | 93 | 1007.4 |
| 20260506104503 | 45 | 45 | 2.0 | 8.0 | 0.06 | 1.20 | 0.55 | 93 | 1007.3 |
| 20260506104003 | 45 | 51 | 2.0 | 8.0 | 0.05 | 1.19 | 0.54 | 93 | 1007.2 |
| 20260506103503 | 45 | 56 | 2.0 | 6.0 | 0.06 | 1.19 | 0.54 | 93 | 1007.3 |
| 20260506103003 | 45 | 64 | 2.0 | 9.0 | 0.05 | 1.18 | 0.53 | 93 | 1007.2 |
| 20260506102503 | 45 | 60 | 3.0 | 9.0 | 0.06 | 1.18 | 0.53 | 93 | 1007.1 |
| 20260506102003 | 45 | 49 | 3.0 | 8.0 | 0.07 | 1.18 | 0.53 | 92 | 1006.9 |
| 20260506101503 | 45 | 36 | 2.0 | 8.0 | 0.06 | 1.17 | 0.52 | 93 | 1007.0 |
| 20260506101024 | 45 | 24 | 2.0 | 8.0 | 0.07 | 1.17 | 0.52 | 92 | 1007.3 |
| 20260506100524 | 45 | 13 | 2.0 | 4.0 | 0.07 | 1.16 | 0.51 | 92 | 1007.6 |
| 20260506100003 | 45 | 15 | 2.0 | 5.0 | 0.08 | 1.16 | 0.51 | 93 | 1007.7 |
| 20260506095503 | 45 | 10 | 2.0 | 6.0 | 0.08 | 1.15 | 0.50 | 93 | 1007.8 |
| 20260506095003 | 45 | 352 | 3.0 | 6.0 | 0.09 | 1.15 | 0.50 | 93 | 1007.9 |
| 20260506094503 | 45 | 358 | 3.0 | 11.0 | 0.08 | 1.14 | 0.49 | 93 | 1008.0 |
| 20260506094003 | 45 | 13 | 3.0 | 11.0 | 0.09 | 1.14 | 0.49 | 93 | 1007.8 |